Weather History for Columbia Airport, CA

Change the Weather History Date:

Wednesday, October 30, 2013

  Actual Average (KMOD) Record (KMOD)
Temperature  
Mean Temperature 48 °F -  
Max Temperature 62 °F 73 °F 87 °F (1939)
Min Temperature 33 °F 49 °F 32 °F (1946)
Degree Days  
Heating Degree Days 18 5  
Month to date heating degree days 55  
Since 1 July heating degree days 58  
Cooling Degree Days 0 1  
Month to date cooling degree days 85  
Year to date cooling degree days 1697  
Moisture  
Dew Point 36 °F    
Average Humidity 72    
Maximum Humidity 100    
Minimum Humidity 34    
Precipitation  
Precipitation 0.00 in 0.03 in 0.75 in (1975)
Month to date precipitation 0.64  
Year to date precipitation 9.67  
Since 1 July precipitation 0.92  
Snow  
Snow 0.00 in - 0.00 in (2002)
Month to date snowfall  
Since 1 July snowfall  
Since 1 September snowfall  
Snow Depth -    
Sea Level Pressure  
Sea Level Pressure 30.08 in    
Wind  
Wind Speed 1 mph (SW)    
Max Wind Speed 7 mph    
Max Gust Speed -    
Visibility 10 miles    
Events      
T = Trace of Precipitation, MM = Missing Value Source: NWS Daily Summary

Daily Weather History Graph

Daily Weather History Graph

Search for Another Location

Airport:

Trip Planner

Search our weather history database for the weather conditions in past years. The results will help you decide how hot, cold, wet, or windy it might be!

Date:

Astronomy

Oct. 30, 2013 Rise Set
Actual Time 7:25 AM PDT 6:04 PM PDT
Civil Twilight 6:58 AM PDT 6:31 PM PDT
Nautical Twilight 6:27 AM PDT 7:02 PM PDT
Astronomical Twilight 5:56 AM PDT 7:33 PM PDT
Moon 3:23 AM PDT (10/30) 3:49 PM PDT (10/30)
Length of Visible Light 11h 33m
Length of Day
10h 38m
Waning Crescent, 16% of the Moon is Illuminated
Oct 30
Waning Crescent
Nov 3
New
Nov 9
First Quarter
Nov 17
Full
Nov 25
Last Quarter

Hourly Weather History & Observations

Time (PDT) Temp. Dew Point Humidity Pressure Visibility Wind Dir Wind Speed Gust Speed Precip Events Conditions
12:15 AM 39.2 °F 37.4 °F 93% 30.02 in 10.0 mi Calm Calm - N/A   Clear
12:35 AM 37.4 °F 37.4 °F 100% 30.02 in 10.0 mi Calm Calm - N/A   Clear
12:55 AM 39.2 °F 37.4 °F 93% 30.03 in 10.0 mi Calm Calm - N/A   Partly Cloudy
1:15 AM 37.4 °F 37.4 °F 100% 30.03 in 10.0 mi Calm Calm - N/A   Scattered Clouds
1:35 AM 39.2 °F 37.4 °F 93% 30.03 in 10.0 mi Calm Calm - N/A   Scattered Clouds
1:55 AM 39.2 °F 37.4 °F 93% 30.04 in 10.0 mi Calm Calm - N/A   Scattered Clouds
2:15 AM 37.4 °F 35.6 °F 93% 30.04 in 10.0 mi Calm Calm - N/A   Mostly Cloudy
2:35 AM 37.4 °F 35.6 °F 93% 30.04 in 10.0 mi Calm Calm - N/A   Scattered Clouds
2:55 AM 37.4 °F 35.6 °F 93% 30.04 in 10.0 mi Calm Calm - N/A   Partly Cloudy
3:15 AM 35.6 °F 35.6 °F 100% 30.04 in 10.0 mi Calm Calm - N/A   Clear
3:35 AM 37.4 °F 35.6 °F 93% 30.04 in 10.0 mi Calm Calm - N/A   Clear
3:55 AM 35.6 °F 35.6 °F 100% 30.04 in 10.0 mi Calm Calm - N/A   Clear
4:15 AM 37.4 °F 35.6 °F 93% 30.05 in 10.0 mi Calm Calm - N/A   Clear
4:35 AM 35.6 °F 33.8 °F 93% 30.05 in 10.0 mi Calm Calm - N/A   Clear
4:55 AM 37.4 °F 35.6 °F 93% 30.05 in 10.0 mi Calm Calm - N/A   Clear
5:15 AM 35.6 °F 33.8 °F 93% 30.05 in 10.0 mi Calm Calm - N/A   Partly Cloudy
5:35 AM 35.6 °F 33.8 °F 93% 30.06 in 10.0 mi Calm Calm - N/A   Clear
5:55 AM 35.6 °F 33.8 °F 93% 30.06 in 10.0 mi Calm Calm - N/A   Clear
6:15 AM 35.6 °F 33.8 °F 93% 30.06 in 10.0 mi Calm Calm - N/A   Clear
6:35 AM 33.8 °F 32.0 °F 93% 30.07 in 10.0 mi Calm Calm - N/A   Clear
6:55 AM 33.8 °F 32.0 °F 93% 30.07 in 10.0 mi Calm Calm - N/A   Clear
7:15 AM 33.8 °F 32.0 °F 93% 30.08 in 10.0 mi Calm Calm - N/A   Clear
7:35 AM 33.8 °F 32.0 °F 93% 30.08 in 10.0 mi Calm Calm - N/A   Clear
7:55 AM 35.6 °F 32.0 °F 87% 30.09 in 10.0 mi Calm Calm - N/A   Clear
8:15 AM 35.6 °F 33.8 °F 93% 30.10 in 10.0 mi Calm Calm - N/A   Clear
8:35 AM 39.2 °F 35.6 °F 87% 30.10 in 10.0 mi Calm Calm - N/A   Clear
8:55 AM 41.0 °F 37.4 °F 87% 30.11 in 10.0 mi Calm Calm - N/A   Clear
9:15 AM 46.4 °F 39.2 °F 76% 30.11 in 10.0 mi Calm Calm - N/A   Clear
9:35 AM 48.2 °F 37.4 °F 66% 30.12 in 10.0 mi Calm Calm - N/A   Clear
9:55 AM 50.0 °F 35.6 °F 58% 30.13 in 10.0 mi Calm Calm - N/A   Clear
10:15 AM 51.8 °F 37.4 °F 58% 30.12 in 10.0 mi Calm Calm - N/A   Clear
10:35 AM 53.6 °F 32.0 °F 44% 30.13 in 10.0 mi Calm Calm - N/A   Clear
10:55 AM 55.4 °F 35.6 °F 47% 30.13 in 10.0 mi South 3.5 mph - N/A   Clear
11:15 AM 57.2 °F 35.6 °F 44% 30.13 in 10.0 mi SSW 3.5 mph - N/A   Clear
11:35 AM 57.2 °F 35.6 °F 44% 30.13 in 10.0 mi Calm Calm - N/A   Clear
11:55 AM 59.0 °F 35.6 °F 42% 30.13 in 10.0 mi Calm Calm - N/A   Clear
12:15 PM 59.0 °F 35.6 °F 42% 30.12 in 10.0 mi SSW 3.5 mph - N/A   Clear
12:35 PM 60.8 °F 35.6 °F 39% 30.12 in 10.0 mi West 6.9 mph - N/A   Clear
12:55 PM 59.0 °F 35.6 °F 42% 30.11 in 10.0 mi Calm Calm - N/A   Clear
1:15 PM 60.8 °F 33.8 °F 36% 30.11 in 10.0 mi SW 4.6 mph - N/A   Clear
1:35 PM 59.0 °F 33.8 °F 39% 30.10 in 10.0 mi Calm Calm - N/A   Clear
1:55 PM 62.6 °F 33.8 °F 34% 30.09 in 10.0 mi West 5.8 mph - N/A   Clear
2:15 PM 62.6 °F 33.8 °F 34% 30.09 in 10.0 mi SW 4.6 mph - N/A   Clear
2:35 PM 62.6 °F 33.8 °F 34% 30.08 in 10.0 mi South 3.5 mph - N/A   Clear
2:55 PM 62.6 °F 33.8 °F 34% 30.08 in 10.0 mi SSW 3.5 mph - N/A   Clear
3:15 PM 60.8 °F 35.6 °F 39% 30.08 in 10.0 mi SW 3.5 mph - N/A   Clear
3:35 PM 60.8 °F 37.4 °F 42% 30.08 in 10.0 mi WSW 5.8 mph - N/A   Clear
3:55 PM 62.6 °F 37.4 °F 39% 30.08 in 10.0 mi WSW 3.5 mph - N/A   Clear
4:15 PM 60.8 °F 35.6 °F 39% 30.08 in 10.0 mi West 6.9 mph - N/A   Clear
5:35 PM 57.2 °F 37.4 °F 48% 30.08 in 10.0 mi West 3.5 mph - N/A   Clear
5:55 PM 55.4 °F 37.4 °F 51% 30.08 in 10.0 mi Calm Calm - N/A   Clear
6:15 PM 51.8 °F 35.6 °F 54% 30.08 in 10.0 mi Calm Calm - N/A   Clear
6:35 PM 50.0 °F 35.6 °F 58% 30.09 in 10.0 mi Calm Calm - N/A   Clear
6:55 PM 48.2 °F 37.4 °F 66% 30.09 in 10.0 mi Calm Calm - N/A   Clear
7:15 PM 46.4 °F 37.4 °F 71% 30.10 in 10.0 mi Calm Calm - N/A   Clear
7:35 PM 46.4 °F 37.4 °F 71% 30.10 in 10.0 mi Calm Calm - N/A   Clear
7:55 PM 46.4 °F 37.4 °F 71% 30.10 in 10.0 mi Calm Calm - N/A   Clear
8:15 PM 44.6 °F 37.4 °F 76% 30.10 in 10.0 mi Calm Calm - N/A   Clear
8:35 PM 44.6 °F 37.4 °F 76% 30.10 in 10.0 mi Calm Calm - N/A   Clear
8:55 PM 42.8 °F 37.4 °F 81% 30.10 in 10.0 mi Calm Calm - N/A   Clear
9:15 PM 41.0 °F 37.4 °F 87% 30.11 in 10.0 mi Calm Calm - N/A   Clear
9:35 PM 42.8 °F 37.4 °F 81% 30.11 in 10.0 mi Calm Calm - N/A   Clear
9:55 PM 42.8 °F 37.4 °F 81% 30.11 in 10.0 mi Calm Calm - N/A   Clear
10:15 PM 41.0 °F 35.6 °F 81% 30.11 in 10.0 mi Calm Calm - N/A   Clear
10:35 PM 39.2 °F 35.6 °F 87% 30.11 in 10.0 mi Calm Calm - N/A   Clear
10:55 PM 41.0 °F 35.6 °F 81% 30.11 in 10.0 mi Calm Calm - N/A   Clear
11:15 PM 39.2 °F 35.6 °F 87% 30.12 in 10.0 mi Calm Calm - N/A   Mostly Cloudy
11:35 PM 39.2 °F 35.6 °F 87% 30.11 in 10.0 mi Calm Calm - N/A   Overcast
11:55 PM 39.2 °F 35.6 °F 87% 30.11 in 10.0 mi Calm Calm - N/A   Mostly Cloudy